Погода в Метро

Индонезия     5°05′40″S   105°20′27″E
темп.,
°C
ветер,
м/с
пор.,
м/с
влажн.,
%
обл.,
%
осадки,
мм/ч
давл.,
гПа
погр.,
м
2 марта, вт
вт201:00+24ссз239092 12.4 101161
04:00+24сз359498 0.0 1010160
07:00+24зсз379496 0.5 1011319
10:00+29сз4576100 0.1 1012718
13:00+31сз4465100 0.2 10101094
16:00+31ссз3364100 0.1 10071222
19:00+26ю3488100 10.8 100959
22:00+25юв128997 3.6 101126
3 марта, ср
ср301:00+24сз369199 4.4 1011172
04:00+23сз2696100 0.0 1009253
07:00+24ссз3691100 0.0 1011267
10:00+29сз457291 0.0 1012786
13:00+31ссз456278 0.0 10091306
16:00+31ссз346278 0.1 10071359
19:00+26с268773 8.9 101090
22:00+26ссз1182100 8.9 101224
4 марта, чт
чт401:00+25з1185100 9.1 101124
04:00+25ссз1290100 0.0 101032
07:00+25с2390100 0.0 1012136
10:00+29ссз457360 0.4 1013846
13:00+31ссз456856 2.9 10101136
16:00+31ссз346494 0.5 10071291
19:00+27ссз118287 3.9 101024
22:00+25юз2387100 2.8 101246
5 марта, пт
пт501:00+24юз239187 3.8 101168
04:00+24ююз239078 0.0 101067
07:00+25ююз118989 0.0 101142
10:00+30ссз116987 0.0 1012840
13:00+33ссз215246 0.0 10091747
16:00+33ссв215141 0.0 10071658
19:00+26юв478433 1.9 1009140
22:00+25ююв358835 1.4 1011146
6 марта, сб
сб601:00+24зсз118947 3.9 101024
04:00+24зсз229046 0.6 100934
07:00+24зсз238872 0.6 1011114
10:00+29ссз4473100 0.0 1011841
13:00+31ссз456682 1.1 10091151
16:00+31ссз346799 0.3 10071170
19:00+27с228294 2.8 100930
22:00+24ююз5795100 11.3 1012240